Content
SEND FEEDBACK

Daily
Averages
Monthly
Summary
United Kingdom

LONDON, ENGLAND


Home > Europe > United Kingdom > England
Elevation: 203 feet     Latitude: 51 09N     Longitude: 000 11W

WEATHER
 
SELECT A DAY
Number of Records: 294,534;   Date Range: 7/1/96 - 9/18/14
 
SHARE

PRINT THIS DATA

[ ← Previous Day ]
WEATHER ALMANAC - JULY 20, 2014
[ Next Day → ]
[ °C ]   °F
Weather ElementAverageHighLow
Temperature69.1 °F77 °F (3:20 pm)62.6 °F (5:20 am)
Dewpoint62 °F64.4 °F (12:20 pm)59 °F (5:50 pm)
Humidity79.3 %100 % (5:20 am)57 % (5:50 pm)
Barometer29.84 in29.95 in (10:50 pm)29.77 in (12:50 am)
Wind Speed6 mph12.7 mph (1:20 pm)
Weather ElementAverage
Visibility5.1 mi
Wind DirectionS (179.6 °)

Weather ElementTotal
Precipitation---
Cooling Degree Days4.8 (Base 65)
Growing Degree Days19.8 (Base 50)
Averaged from 45 records on July 20, 2014
WEATHER CONDITIONS BREAKOUT
WIND DIRECTION BREAKOUT
WEATHER BY HOUR - JULY 20, 2014
[ °C ]   °F
Local TimeTemperatureDewpointHumidityBarometerVisibilityWind DirectionWind SpeedGust SpeedPrecipitationEventsConditions
12:50 AM64.4 °F62.6 °F94 %29.77 in3.7 miVariable3.5 mphMostly Cloudy
1:20 AM64.4 °F62.6 °F94 %29.80 in3.1 miVariable3.5 mphHaze
1:50 AM64.4 °F62.6 °F94 %29.80 inVariable3.5 mphHaze
2:20 AM64.4 °F62.6 °F94 %29.77 inVariable3.5 mphHaze
2:50 AM64.4 °F62.6 °F94 %29.77 inWSW (240°)4.6 mphHaze
4:20 AM64.4 °F62.6 °F94 %29.77 in1.6 miVariable2.3 mphMostly Cloudy
4:50 AM64.4 °F62.6 °F94 %29.77 in1.4 miVariable2.3 mphMostly Cloudy
5:20 AM62.6 °F62.6 °F100 %29.77 in1.4 miSW (220°)2.3 mphMostly Cloudy
5:50 AM62.6 °F60.8 °F94 %29.77 in0.2 miWest (260°)2.3 mphFogFog
6:20 AM62.6 °F62.6 °F100 %29.77 in0.7 miVariable2.3 mphFogFog
6:50 AM62.6 °F62.6 °F100 %29.80 in0.9 miSSW (210°)3.5 mphScattered Clouds
7:20 AM64.4 °F62.6 °F94 %29.80 in3.7 miVariable3.5 mphPartly Cloudy
7:50 AM66.2 °F62.6 °F88 %29.80 in4.3 miVariable3.5 mph
8:20 AM68.0 °F62.6 °F83 %29.80 in6.2 miVariable3.5 mphPartly Cloudy
8:50 AM68.0 °F62.6 °F83 %29.83 in6.2 miVariable3.5 mphMostly Cloudy
9:20 AM68.0 °F62.6 °F83 %29.83 in6.2 miNW (310°)5.8 mphMostly Cloudy
9:50 AM68.0 °F62.6 °F83 %29.83 in6.2 miNW (310°)9.2 mphMostly Cloudy
10:20 AM68.0 °F62.6 °F83 %29.83 in6.2 miWNW (300°)11.5 mphMostly Cloudy
10:50 AM69.8 °F62.6 °F78 %29.83 in5.6 miWNW (300°)11.5 mphScattered Clouds
11:20 AM69.8 °F62.6 °F78 %29.80 in5.6 miNW (310°)11.5 mphMostly Cloudy
11:50 AM69.8 °F62.6 °F78 %29.83 in6.2 miNW (310°)9.2 mphMostly Cloudy
12:20 PM73.4 °F64.4 °F73 %29.83 in6.2 miNW (320°)9.2 mphMostly Cloudy
12:50 PM73.4 °F62.6 °F69 %29.83 in6.2 miNW (310°)10.4 mphMostly Cloudy
1:20 PM73.4 °F62.6 °F69 %29.83 in6.2 miWNW (300°)12.7 mphPartly Cloudy
1:50 PM73.4 °F62.6 °F69 %29.83 in6.2 miNW (310°)10.4 mphScattered Clouds
2:20 PM73.4 °F62.6 °F69 %29.83 in6.2 miWNW (300°)9.2 mphScattered Clouds
2:50 PM75.2 °F60.8 °F61 %29.83 in6.2 miWNW (300°)8.1 mphScattered Clouds
3:20 PM77.0 °F62.6 °F61 %29.83 in6.2 miNW (320°)6.9 mphScattered Clouds
3:50 PM75.2 °F60.8 °F61 %29.83 in6.2 miNW (320°)6.9 mphPartly Cloudy
4:20 PM75.2 °F60.8 °F61 %29.86 in6.2 miWNW (290°)10.4 mphScattered Clouds
4:50 PM75.2 °F62.6 °F65 %29.86 in6.2 miWest (280°)9.2 mphPartly Cloudy
5:20 PM75.2 °F60.8 °F61 %29.86 inWNW (300°)8.1 mphClear
5:50 PM75.2 °F59.0 °F57 %29.86 inNW (310°)6.9 mphClear
6:20 PM73.4 °F60.8 °F65 %29.86 in6.2 miNNW (340°)6.9 mphPartly Cloudy
6:50 PM69.8 °F60.8 °F73 %29.86 in6.2 miEast (90°)8.1 mphScattered Clouds
7:20 PM68.0 °F60.8 °F78 %29.89 in6.2 miEast (80°)3.5 mphScattered Clouds
7:50 PM69.8 °F60.8 °F73 %29.89 in6.2 miCalmScattered Clouds
8:20 PM69.8 °F60.8 °F73 %29.89 in6.2 miNNW (330°)6.9 mphScattered Clouds
8:50 PM69.8 °F60.8 °F73 %29.92 in6.2 miWest (270°)4.6 mphPartly Cloudy
9:20 PM69.8 °F60.8 °F73 %29.92 in6.2 miSW (220°)3.5 mphPartly Cloudy
9:50 PM69.8 °F60.8 °F73 %29.92 in6.2 miVariable3.5 mphPartly Cloudy
10:20 PM68.0 °F60.8 °F78 %29.92 inNNE (30°)4.6 mphClear
10:50 PM68.0 °F62.6 °F83 %29.95 inVariable2.3 mphClear
11:20 PM68.0 °F62.6 °F83 %29.95 in6.2 miWNW (290°)5.8 mphPartly Cloudy
11:50 PM68.0 °F62.6 °F83 %29.95 inVariable3.5 mphClear
Hourly data recorded from EGKK, located miles away from London, England







STORIES FROM OUR PARTNERS